OBJECT A (43827 NORAD) Tracking and Keplerian Element Data

This shows tracking and keplerian element data for the satellite.

Feedback or suggestion? Click here.




ElementValue
Catalog43827
NameOBJECT A
Epoch Orbit14579
Epoch Day343.59228877
Epoch Year2018
RAAN224.5995
Inclination51.6406
Eccentricity0.0005136
Argument of Perigee127.6506
Mean Anonmoly318.1257
Mean Motion15.54075846
Decay Rate2.464E-05
L11 43827U 18101A 18343.59228877 .00002464 00000-0 44555-4 0 9995
L22 43827 51.6406 224.5995 0005136 127.6506 318.1257 15.54075846145794

Live tracking and technical data element details for OBJECT A (NORAD 43827). OBJECT A can be tracked NOW for your location showing map with azimuth and elevation plus other details from your city location.

Track the satellite on the map from your city or location and see movement details for azimuth, elevation, latitude, longitude, range, height, and movement on the map or in text.







IsCatalogInMostPopularTable: catalog: 43827, numindb: 1
Update: records affected: 1



GetName: 43827 OBJECT A

Hit Count: updated at: Tue, 11 Dec 2018 01:58:06 GMT